Weather in Gotha

Germany     50˚57′10″N   10˚42′28″E
temp.,
°C
wind,
m/s
gust,
m/s
humid.,
%
clouds,
%
prec.,
mm/h
press.,
hPa
HPBL,
m
2 december, wed
wed201:00−1˚ene119391 0.0 102121
04:00−1˚ene119562 0.0 102126
07:00−2˚ene119639 0.0 102124
10:00ene11821 0.0 1020155
13:00+2˚ene23711 0.0 1017420
16:00−1˚ene228814 0.0 101623
19:00−2˚se12918 0.0 101522
22:00−2˚wsw229115 0.0 101445
3 december, thu
thu301:00−2˚sw348041 0.0 1012205
04:00−2˚ssw367888 0.0 1010263
07:00−1˚sw477490 0.0 1009268
10:00ssw487298 0.0 1007384
13:00+1˚ssw597197 0.0 1005519
16:00ssw4108454 0.0 1003385
19:00−1˚s4138228 0.0 1001390
22:00−1˚sse398235 0.0 999295
4 december, fri
fri401:00sse377666 0.0 997256
04:00se3768100 0.0 995187
07:00+1˚se4867100 0.0 994214
10:00+2˚sse1268100 0.0 99355
13:00+4˚e465990 0.0 991303
16:00+1˚ssw017835 0.0 99122
19:00sw127768 0.0 99223
22:00wsw1181100 0.0 99422
5 december, sat
sat501:00−1˚s118399 0.0 99421
04:00−1˚e1184100 0.0 99421
07:00−1˚se018599 0.0 99421
10:00ne117868 0.0 99568
13:00+3˚w116855 0.0 996396
16:00nw1181100 0.0 99622
19:00w2282100 0.0 99722
22:00sw1299100 0.8 99872
6 december, sun
sun601:00ssw1198100 1.2 99854
04:00−1˚w119899 0.0 99830
07:00w129899 0.1 99877
10:00+1˚ene1197100 0.6 99974
13:00+2˚ese1195100 0.6 998124
16:00+1˚wnw2394100 0.0 99894
19:00+1˚w1295100 0.0 99940
22:00wsw1194100 0.0 99921